QPF
0.00 0.00 0.00 0.00 0.00 0.00 0.00 0.00 0.00 0.00 0.00 0.00 0.00 0.00 0.00 0.01 0.01 0.02 0.04 0.05 0.05 0.04
0.00 0.00 0.00 0.00 0.00 0.00 0.00 0.00 0.00 0.00 0.00 0.00 0.00 0.00 0.00 0.01 0.01 0.01 0.01 0.04 0.05 0.06
0.00 0.00 0.00 0.00 0.00 0.00 0.00 0.00 0.00 0.00 0.00 0.00 0.00 0.00 0.00 0.00 0.00 0.00 0.00 0.00 0.02 0.03
0.00 0.00 0.00 0.00 0.00 0.00 0.00 0.00 0.00 0.00 0.00 0.00 0.00 0.00 0.00 0.00 0.00 0.00 0.00 0.00 0.00 0.00
0.00 0.00 0.00 0.00 0.00 0.00 0.00 0.00 0.00 0.00 0.00 0.00 0.00 0.00 0.00 0.00 0.00 0.00 0.00 0.00 0.00 0.00
0.00 0.00 0.00 0.00 0.00 0.00 0.00 0.00 0.00 0.00 0.00 0.00 0.00 0.00 0.00 0.00 0.00 0.00 0.00 0.00 0.00 0.00
0.00 0.00 0.00 0.00 0.00 0.00 0.00 0.00 0.00 0.00 0.00 0.00 0.00 0.00 0.00 0.00 0.00 0.00 0.00 0.00 0.00 0.00
0.00 0.00 0.00 0.00 0.00 0.00 0.00 0.00 0.00 0.00 0.00 0.00 0.00 0.00 0.00 0.00 0.00 0.00 0.00 0.00 0.00 0.00
0.00 0.00 0.00 0.00 0.00 0.00 0.00 0.00 0.00 0.00 0.00 0.00 0.00 0.00 0.00 0.00 0.00 0.00 0.00 0.00 0.00 0.00
0.00 0.00 0.00 0.00 0.00 0.00 0.00 0.00 0.00 0.00 0.00 0.00 0.00 0.00 0.00 0.00 0.00 0.00 0.00 0.00 0.00 0.00
0.00 0.00 0.00 0.00 0.00 0.00 0.00 0.00 0.00 0.00 0.00 0.00 0.00 0.00 0.00 0.00 0.00 0.00 0.00 0.00 0.00 0.00
0.00 0.00 0.00 0.00 0.00 0.00 0.00 0.00 0.00 0.00 0.00 0.00 0.00 0.00 0.00 0.00 0.00 0.00 0.00 0.00 0.00 0.00
0.00 0.00 0.00 0.00 0.00 0.00 0.00 0.00 0.00 0.00 0.00 0.00 0.00 0.00 0.00 0.00 0.00 0.00 0.00 0.00 0.00 0.00
0.00 0.00 0.00 0.00 0.00 0.00 0.00 0.00 0.00 0.00 0.00 0.00 0.00 0.00 0.00 0.00 0.00 0.00 0.00 0.00 0.00 0.00
MSLP
1014.45 1014.40 1014.32 1014.33 1014.31 1014.28 1014.08 1014.03 1013.93 1014.19 1014.49 1014.57 1014.91 1015.29 1015.59 1015.94 1016.16 1016.27 1016.52 1017.02 1017.30 1017.58
1014.71 1014.63 1014.57 1014.42 1014.29 1014.26 1014.17 1014.25 1014.09 1014.31 1014.51 1014.65 1014.99 1015.32 1015.71 1015.91 1016.09 1016.26 1016.52 1016.76 1017.17 1017.84
1015.10 1014.92 1014.80 1014.64 1014.59 1014.55 1014.52 1014.54 1014.57 1014.54 1014.77 1015.17 1015.30 1015.63 1015.84 1016.24 1016.52 1016.73 1017.33 1017.68 1018.10 1018.70
1015.38 1015.17 1015.04 1015.01 1014.99 1014.92 1014.91 1014.93 1014.99 1015.03 1015.28 1015.69 1015.94 1016.18 1016.36 1016.90 1017.21 1017.57 1018.06 1018.45 1018.87 1019.33
1015.74 1015.69 1015.63 1015.64 1015.44 1015.33 1015.36 1015.41 1015.54 1015.72 1016.10 1016.45 1016.67 1016.87 1017.22 1017.70 1018.09 1018.43 1018.79 1019.14 1019.43 1019.85
1016.21 1016.17 1016.19 1016.14 1016.09 1016.01 1016.01 1016.05 1016.28 1016.40 1016.80 1017.09 1017.30 1017.59 1017.98 1018.37 1018.79 1019.19 1019.62 1019.93 1020.18 1020.53
1016.66 1016.68 1016.67 1016.68 1016.67 1016.73 1016.76 1016.84 1017.05 1017.28 1017.47 1017.71 1018.01 1018.33 1018.73 1019.05 1019.44 1019.81 1020.27 1020.57 1020.90 1021.08
1017.05 1017.10 1017.18 1017.25 1017.40 1017.51 1017.51 1017.70 1017.86 1018.03 1018.30 1018.51 1018.69 1019.18 1019.51 1019.81 1020.18 1020.70 1021.21 1021.03 1021.32 1021.86
1017.45 1017.65 1017.61 1017.79 1017.93 1018.07 1018.29 1018.46 1018.57 1018.73 1018.93 1019.18 1019.56 1019.92 1020.20 1020.52 1020.89 1021.45 1022.05 1022.01 1022.27 1022.52
1017.81 1018.00 1018.19 1018.40 1018.51 1018.81 1018.95 1019.16 1019.45 1019.67 1019.84 1019.94 1020.34 1020.65 1020.81 1021.00 1021.40 1022.12 1022.42 1022.40 1022.80 1022.91
1018.31 1018.66 1018.95 1019.04 1019.29 1019.50 1019.65 1020.09 1020.37 1020.43 1020.56 1020.70 1020.89 1021.00 1021.26 1021.49 1022.02 1022.65 1022.86 1023.09 1023.11 1023.27
1018.71 1019.06 1019.53 1019.73 1019.98 1020.27 1020.52 1020.91 1021.15 1021.28 1021.32 1021.31 1021.40 1021.55 1021.71 1021.91 1022.46 1022.92 1023.29 1023.33 1023.36 1023.36
1019.06 1019.46 1019.96 1020.15 1020.42 1020.74 1021.11 1021.43 1021.68 1021.85 1021.85 1021.95 1021.90 1021.70 1021.85 1022.29 1022.65 1023.17 1023.45 1023.52 1023.37 1023.07
1019.33 1019.82 1020.16 1020.44 1020.75 1021.09 1021.43 1021.76 1022.06 1022.28 1022.46 1022.50 1022.20 1021.87 1021.79 1022.36 1022.70 1023.07 1023.58 1023.61 1023.67 1023.65
Thickness
5639 5641 5644 5647 5647 5649 5652 5652 5651 5646 5642 5639 5631 5627 5623 5621 5619 5616 5612 5604 5600 5594
5629 5632 5634 5635 5637 5638 5640 5639 5639 5636 5633 5630 5626 5622 5616 5613 5610 5607 5602 5597 5589 5579
5617 5621 5623 5625 5625 5626 5626 5626 5625 5624 5621 5617 5614 5609 5607 5602 5597 5593 5584 5577 5568 5557
5607 5610 5612 5613 5613 5614 5614 5613 5612 5611 5608 5604 5601 5598 5595 5589 5584 5577 5568 5559 5550 5540
5594 5596 5597 5598 5600 5602 5601 5601 5599 5597 5593 5589 5586 5584 5580 5574 5567 5560 5551 5542 5534 5522
5580 5582 5583 5585 5586 5587 5587 5587 5585 5583 5579 5576 5574 5570 5566 5559 5552 5544 5535 5526 5517 5507
5567 5568 5570 5571 5573 5573 5573 5573 5570 5568 5567 5564 5561 5557 5551 5545 5538 5530 5520 5512 5503 5494
5555 5557 5558 5559 5559 5559 5558 5557 5556 5555 5553 5550 5547 5542 5536 5531 5523 5513 5503 5500 5492 5481
5545 5545 5547 5546 5546 5545 5544 5543 5544 5543 5540 5537 5532 5527 5522 5515 5508 5499 5489 5484 5477 5470
5534 5534 5534 5534 5534 5533 5533 5532 5529 5527 5525 5523 5518 5512 5508 5503 5495 5486 5478 5474 5466 5460
5523 5521 5520 5521 5521 5520 5521 5517 5514 5514 5512 5509 5504 5500 5495 5491 5482 5474 5468 5462 5457 5451
5512 5511 5509 5509 5509 5507 5506 5503 5501 5499 5496 5494 5491 5487 5482 5478 5471 5464 5457 5453 5449 5444
5503 5502 5499 5500 5499 5496 5494 5492 5489 5487 5485 5482 5478 5477 5473 5468 5462 5454 5448 5444 5442 5438
5495 5492 5492 5491 5489 5486 5484 5482 5478 5476 5472 5469 5469 5469 5467 5459 5453 5447 5440 5437 5433 5428